CAPE
1483 1144 1249 1528 1701 1778 1960 2052 2228 2612 2719 2514 2130 1865 2088 1806 1719 1648 1538 1651 1376 966
1459 1452 1447 1922 2025 1823 2144 2100 2503 2552 2785 2577 2187 1973 2184 1680 1804 1698 1624 1340 989 825
1321 1486 1547 1836 2093 2168 2339 2553 2731 2771 2721 2729 2501 2212 2039 1838 1975 1804 1593 1145 1247 911
1353 1246 1455 1525 1817 2085 2214 2592 2757 3076 2741 2968 2796 2687 2377 2179 2143 2110 1946 1516 1370 1152
1360 1345 1200 1474 1638 1936 2215 2436 2771 2779 2859 2928 2776 2858 2855 2474 2151 2308 2151 1898 1367 1112
1200 1273 1308 1394 1634 1877 2092 2249 2192 2435 2660 2781 2651 2808 2987 2909 3087 2706 2401 2250 1773 1439
1501 1579 1692 1930 2259 2222 2525 2663 2715 2687 2722 2720 2656 2633 2777 2971 2901 3099 2727 2668 2210 1773
1610 1887 2135 2536 2662 2724 2840 2902 3005 2926 2871 2771 2755 2583 2725 2965 3062 3242 3166 2780 2668 2147
2398 2592 2539 1790 1257 1510 1933 2265 2519 2443 2492 2190 2075 1854 1807 1930 2876 3223 3285 3261 2804 2515
1425 1462 1357 1125 578 852 1373 1463 2214 1962 1851 1740 1676 1401 1293 1171 1703 3044 3218 3373 3236 2522
775 814 736 495 498 719 1002 1361 1756 1993 1255 433 484 645 394 420 837 1809 2916 3267 3112 2722
778 622 689 973 740 544 684 744 917 1230 1250 1001 752 283 217 171 369 994 1700 2647 2634 1534
645 916 1007 809 559 541 424 364 241 245 341 333 351 91 63 119 375 791 1241 921 832 714
628 707 684 651 876 586 410 361 418 341 272 216 160 170 49 21 53 409 804 1094 830 835
CIN
-111 -86 -57 -37 -21 -17 -19 -21 -40 -34 -20 -16 -23 -21 -12 -6 -7 -13 -10 -16 -47 -71
-138 -111 -67 -44 -38 -21 -33 -28 -49 -41 -27 -28 -29 -30 -13 -17 -14 -10 -18 -45 -72 -73
-166 -136 -109 -76 -49 -35 -26 -36 -29 -31 -33 -39 -38 -40 -35 -27 -19 -33 -34 -52 -65 -109
-198 -171 -131 -105 -91 -63 -34 -31 -26 -18 -33 -27 -25 -29 -34 -32 -19 -25 -25 -53 -63 -71
-195 -192 -147 -119 -109 -91 -63 -43 -41 -30 -24 -23 -25 -23 -22 -35 -37 -31 -29 -41 -72 -81
-191 -175 -141 -110 -102 -86 -76 -66 -56 -52 -46 -36 -27 -19 -18 -31 -22 -26 -30 -32 -45 -56
-191 -165 -121 -112 -94 -81 -71 -53 -36 -36 -38 -37 -33 -34 -25 -12 -29 -14 -28 -21 -31 -43
-195 -168 -135 -126 -110 -87 -67 -52 -34 -19 -21 -18 -4 -5 -15 -14 -10 -17 -14 -26 -22 -38
-101 -87 -96 -124 -94 -158 -140 -120 -77 -101 -68 -87 -81 -72 -28 -14 0 -3 -14 -16 -20 -24
-158 -128 -114 -110 -80 -226 -82 -140 -110 -141 -173 -166 -204 -212 -155 -119 -58 -2 0 -2 -11 -29
-161 -141 -182 -200 -234 -171 -95 -114 -127 -84 -211 -376 -329 -356 -294 -134 -150 -47 -7 0 -3 -1
-171 -210 -159 -113 -145 -165 -183 -208 -155 -122 -161 -229 -272 -341 -155 -137 -202 -115 -48 -4 -2 -45
-159 -97 -72 -98 -150 -204 -264 -258 -278 -270 -276 -249 -182 -118 -147 -111 -226 -105 -56 -75 -78 -98
-154 -139 -143 -135 -80 -141 -190 -229 -218 -247 -238 -248 -234 -260 -74 -48 -326 -131 -37 -20 -36 -12
Wind_Speed
4 4 4 5 2 6 5 8 8 6 4 4 7 8 7 6 6 6 7 11 14 12
6 7 5 5 4 6 8 11 9 9 7 5 6 8 8 6 7 6 6 8 9 10
9 9 8 8 8 6 10 12 12 10 10 10 9 8 8 6 5 5 5 7 12 13
14 11 11 11 11 11 10 12 13 11 11 14 12 10 8 6 5 6 6 8 10 12
14 17 17 18 13 12 10 13 14 14 14 15 16 13 12 10 9 11 8 9 11 12
13 14 15 14 13 14 13 11 13 16 15 16 16 15 14 13 13 14 14 15 16 16
10 11 13 18 18 17 17 15 15 17 17 16 17 16 16 15 13 16 15 18 20 21
14 17 18 19 23 24 23 21 20 20 21 25 23 21 19 20 16 16 18 17 20 23
22 21 29 33 32 28 25 28 28 28 26 30 33 32 28 23 22 21 18 21 22 24
31 33 28 30 35 40 25 34 35 31 31 31 36 42 38 30 24 25 24 20 24 27
32 27 32 35 33 28 29 33 33 26 25 22 30 47 46 38 33 29 27 24 23 25
30 30 32 35 36 31 33 34 31 30 29 31 34 39 22 40 36 36 29 31 27 31
29 30 30 34 36 38 37 37 37 34 36 35 31 nan nan 34 26 29 31 28 26 27
28 29 32 34 37 37 35 36 37 37 33 28 31 31 nan nan nan 26 23 31 31 31
Wind_Direction
331 303 341 356 252 237 245 234 232 287 313 354 7 359 0 351 16 5 358 349 347 348
319 334 326 337 273 248 246 235 241 251 270 289 326 346 355 7 13 355 343 338 338 344
313 317 315 306 311 267 236 235 250 266 266 275 283 308 335 353 13 339 339 313 319 331
299 301 292 293 294 292 267 253 245 253 264 263 268 278 299 324 317 327 316 310 321 329
297 295 301 301 292 279 275 272 266 257 254 250 258 268 287 295 302 305 307 308 311 322
309 305 299 293 286 277 271 259 255 251 255 257 260 266 274 283 294 301 301 300 307 317
309 308 306 298 289 276 272 266 260 261 261 251 245 257 260 261 263 278 287 296 306 310
297 300 298 292 284 281 282 276 268 263 266 265 254 242 251 265 268 271 282 292 299 303
288 297 308 278 264 266 273 276 273 270 265 270 268 253 250 251 265 274 279 291 299 303
282 277 277 278 282 252 245 262 266 270 272 272 273 276 269 263 258 266 274 278 288 292
288 288 291 292 295 306 277 284 279 259 274 266 285 264 267 258 257 264 275 278 284 286
274 277 279 281 288 284 277 274 271 267 270 266 264 276 261 262 257 260 263 267 278 293
262 268 271 272 270 274 274 275 281 275 268 267 269 nan nan 284 273 250 264 275 283 292
269 266 267 267 269 269 267 266 266 267 268 265 266 260 nan nan nan 249 259 275 282 285